Regional Weather Roundup
Issued by NWS

Home | Current Version | Previous Version | Text Only | Print | Product List | Glossary Off
Versions: 1 2 3 4 5 6 7 8 9 10 11 12 13 14 15 16 17 18 19 20 21 22 23 24 25 26 27 28 29 30 31 32 33 34 35 36 37 38 39 40 41 42 43 44 45 46 47 48 49 50

000
ASUS44 KMEG 282210
RWRTN
TENNESSEE HOURLY STATE WEATHER ROUNDUP
NATIONAL WEATHER SERVICE MEMPHIS TN
400 PM CST FRI NOV 28 2014

TNZ002-004-019-021-049-052-054-088>092-282300-
WEST TENNESSEE

CITY           SKY/WX    TMP DP  RH WIND       PRES   REMARKS
MEMPHIS INTL   PTCLDY    55  22  27 S18G25    30.17F
NWS MEMPHIS      N/A     55 N/A N/A MISG        N/A
JACKSON        CLEAR     51  24  34 S7        30.18F
DYERSBURG      CLEAR    N/A N/A N/A S7G20     30.15F
UNION CITY     CLEAR     46  27  46 S13       30.13F
PARIS          CLEAR     45  27  49 S9        30.16F
HUNTINGDON     CLEAR     47  21  35 S10       30.17F
LEXINGTON      CLEAR     48  25  40 S9        30.19S
SAVANNAH       CLEAR     50  25  37 S9        30.21S
$$

TNZ008-025-027-028-033-062-065-066-282300-
NORTH MIDDLE TENNESSEE

CITY           SKY/WX    TMP DP  RH WIND       PRES   REMARKS
NASHVILLE      CLEAR     46  22  38 S10       30.22F
CLARKSVILLE    CLEAR     47  24  40 S9        30.18F
COOKEVILLE     CLEAR     45  21  39 SW5       30.22F
CROSSVILLE     CLEAR     41  18  39 S5        30.22F
$$

TNZ061-075-076-078-094-096-097-282300-
SOUTH MIDDLE TENNESSEE

CITY           SKY/WX    TMP DP  RH WIND       PRES   REMARKS
FAYETTEVILLE   CLEAR     46  16  29 MISG      30.24F
TULLAHOMA      CLEAR     45  16  31 S6        30.24S
WINCHESTER     CLEAR     46  18  31 SE10      30.25S
MCMINNVILLE    CLEAR     46  18  31 CALM      30.23F
COLUMBIA       CLEAR     46  25  42 S10       30.20F
SHELBYVILLE    CLEAR     46  21  36 S9        30.24F
$$

TNZ017-018-042-046-047-282300-
NORTHEAST TENNESSEE

CITY           SKY/WX    TMP DP  RH WIND       PRES   REMARKS
TRI CITIES     PTCLDY    37  20  50 SW3       30.27R
ELIZABETHTON   CLEAR     34  18  51 CALM      30.26S
$$

TNZ012-013-036-069-073-074-282300-
CENTRAL EAST TENNESSEE

CITY           SKY/WX    TMP DP  RH WIND       PRES   REMARKS
KNOXVILLE      CLEAR     41  18  39 W5        30.28S
OAK RIDGE      CLEAR     42  16  34 S5        30.29F
GATLINBURG     CLEAR     39  19  45 NE3       30.26F
MORRISTOWN     CLEAR     37  19  48 CALM      30.27S
$$

TNZ083-085-099-282300-
SOUTHEAST TENNESSEE

CITY           SKY/WX    TMP DP  RH WIND       PRES   REMARKS
CHATTANOOGA    CLEAR     45  17  32 CALM      30.28F
$$

SKY/WX REPORTED AS FAIR MEANS FEW OR NO CLOUDS BELOW
12 THOUSAND FEET.




USA.gov is the U.S. government's official web portal to all federal, state and local government web resources and services.